Hlavní strana
METAR-TAF:

METAR-TAF

Letiště :

Delaware County Airport (Johnson Field)

Muncie, Indiana, Spojené státy americké

zeměpisná šířka: 40-14-03N, zeměpisná délka: 085-23-37W, výška: 285 m

Aktuální stav počasí

Zpráva byla vytvořena před 31 minutami, v 09:53 UTC
Západní vítr 19 kt s nárazy do 27 kt
Teplota -3°C
Vlhkost vzduchu 80%
Tlak 1013 hPa
Viditelnost: 16.1 km
Zataženo ve výšce 1100 ft

METAR: KMIE 100953Z AUTO 28019G27KT 10SM OVC011 M03/M06 A2991 RMK AO2 PK WND 27027/0944 SLP131 T10281061

Čas: 05:24 (10:24 UTC)


TAF: chybějící

Stav a předpovědi počasí z více než 4 000 letišť (zprávy METAR a TAF).

Červené a žluté tečky na mapě představují dostupné meteorologické stanice.

Když kurzor umístíte na tečku, zobrazí se název stanice.

Pak kliknutím zobrazíte stav a předpověď počasí.

Chcete-li změnit mapu, kliknutím na zelené tlačítko se znaménkem +mapu přiblížíte, kliknutím na zelené tlačítko se znaménkem – mapu oddálíte a kliknutím na zelené šipky přejdete na sousední mapy.


METAR-TAF: